Regional Weather Roundup
Issued by NWS Cleveland, OH

Home | Current Version | Previous Version | Text Only | Print | Product List | Glossary On
Versions: 1 2 3 4 5 6 7 8 9 10 11 12 13 14 15 16 17 18 19 20 21 22 23 24 25 26 27 28 29 30 31 32 33 34 35 36 37 38 39 40 41 42 43 44 45 46 47 48 49 50
000
ASUS41 KCLE 250810
RWRCLE
OHIO REGIONAL WEATHER ROUNDUP
NATIONAL WEATHER SERVICE WILMINGTON, OH
400 AM EDT MON MAY 25 2015

NOTE: "FAIR" INDICATES FEW OR NO CLOUDS BELOW 12,000 FEET WITH NO
SIGNIFICANT WEATHER AND/OR OBSTRUCTIONS TO VISIBILITY.

OHZ001>008-015>018-024>027-034-035-043-044-250900-
   NORTHWEST OHIO

CITY           SKY/WX    TMP DP  RH WIND       PRES   REMARKS
DEFIANCE       CLEAR     70  53  54 S9        30.01F
FINDLAY        CLEAR     65  51  60 S10       30.05F
TOLEDO EXPRESS PTCLDY    66  50  56 S7        30.03F
TOLEDO EXEC    PTCLDY    67  50  54 S9        30.04F
LIMA           CLEAR     68  51  54 S9        30.05F
$$

OHZ009>014-019>023-028>033-038-089-250900-
   NORTHEAST OHIO

CITY           SKY/WX    TMP DP  RH WIND       PRES   REMARKS
CLE-HOPKINS    MOCLDY    69  51  52 S12       30.11S
CLE-LAKEFRONT  PTCLDY    70  51  51 S13       30.07F
CUY CO. ARPT   NOT AVBL
LORAIN-ELYRIA  PTCLDY    66  53  63 S10       30.09S
ASHTABULA      CLEAR     61  46  57 S7        30.13F
AKRON-CANTON   CLEAR     62  51  67 S7        30.14S
WOOSTER        CLEAR     62  52  69 S7        30.13S
MANSFIELD      CLEAR     67  54  63 S12       30.11F
YOUNGSTOWN     PTCLDY    59  47  64 SE7       30.14F
$$

OHZ042-051>053-060>062-070>072-077>081-250900-
  SOUTHWEST OHIO

CITY           SKY/WX    TMP DP  RH WIND       PRES   REMARKS
CINC-COVINGTON MOCLDY    69  55  60 S12       30.09S
CINC-LUNKEN    PTCLDY    65  56  72 W3        30.09F
HAMILTON       PTCLDY    71  55  56 VRB3      30.09S
DAYTON         MOCLDY    70  53  54 S10       30.09F
WRIGHT-PAT AFB MOCLDY    65  53  63 SE2       30.09S
DAYTON GENERAL MOCLDY    65  53  65 S7        30.09S
WILMINGTON     MOCLDY    65  50  58 S7        30.11F
$$

OHZ036-037-039>041-045>050-054>059-063>069-073>076-082>088-250900-
  CENTRAL AND SOUTHEAST OHIO

CITY           SKY/WX    TMP DP  RH WIND       PRES   REMARKS
COLUMBUS       PTCLDY    66  54  65 SE5       30.11F
OSU AIRPORT    PTCLDY    67  54  63 S8        30.11S
BOLTON FIELD   NOT AVBL
RICKENBACK AFB CLEAR     62  54  73 SE5       30.11S
NEWARK         CLEAR     55  53  93 CALM      30.12F
MARION         CLEAR     64  53  67 S10       30.10S
LANCASTER      CLEAR     62  55  77 SE6       30.13S
ZANESVILLE     CLEAR     58  52  80 CALM      30.14S
NEW PHILLY     CLEAR     60  54  80 SE3       30.15S
$$


USA.gov is the U.S. government's official web portal to all federal, state and local government web resources and services.